Regional Weather Roundup
Issued by NWS

Home | Current Version | Previous Version | Graphics & Text | Print | Product List | Glossary On
Versions: 1 2 3 4 5 6 7 8 9 10 11 12 13 14 15 16 17 18 19 20 21 22 23 24 25 26 27 28 29 30 31 32 33 34 35 36 37 38 39 40 41 42 43 44 45 46 47 48 49 50
000
ASUS43 KBIS 231920
RWRND

NORTH DAKOTA REGIONAL WEATHER ROUNDUP
NATIONAL WEATHER SERVICE BISMARCK ND
200 PM CDT WED APR 23 2014

NOTE: "FAIR" INDICATES FEW OR NO CLOUDS BELOW 12,000 FEET WITH NO
SIGNIFICANT WEATHER AND/OR OBSTRUCTIONS TO VISIBILITY.


NDZ001>003-009>011-017-232000-
NORTHWEST NORTH DAKOTA

CITY           SKY/WX    TMP DP  RH WIND       PRES   REMARKS
WILLISTON      CLOUDY    52  44  74 W16       29.45R
MINOT          LGT RAIN  50  42  74 E25G37    29.56S
MINOT AFB      CLOUDY    48  45  90 SE31G39   29.56S
$$

NDZ018>021-031>035-040>046-232000-
SOUTHWEST NORTH DAKOTA

CITY           SKY/WX    TMP DP  RH WIND       PRES   REMARKS
BISMARCK       CLOUDY    56  40  55 SE32G38   29.55F
DICKINSON      CLOUDY    55  41  59 W28G33    29.48R
GARRISON         N/A     53  41  63 S20G31    29.52R
HETTINGER ARPT CLOUDY    55  41  59 W24G36    29.53R
$$

NDZ004>008-012>016-024-026-027-054-232000-
NORTHEAST NORTH DAKOTA

CITY           SKY/WX    TMP DP  RH WIND       PRES   REMARKS
GRAND FORKS    LGT RAIN  45  41  86 SE21      29.87S
GRND FRKS AFB  LGT RAIN  44  44  99 SE20G25   29.86S FOG
DEVILS LAKE    CLOUDY    43  36  75 SE25G31   29.74S
$$

NDZ022-023-025-028>030-036>039-047>053-232000-
SOUTHEAST NORTH DAKOTA

CITY           SKY/WX    TMP DP  RH WIND       PRES   REMARKS
FARGO          CLOUDY    44  40  85 SE18G26   29.85S
JAMESTOWN      LGT RAIN  44  41  89 SE29G39   29.69F
$$




USA.gov is the U.S. government's official web portal to all federal, state and local government web resources and services.